Change the Weather History Date:

Friday, January 11, 2013

  Actual Average Record
Temperature  
Mean Temperature 19 °F 9 °F  
Max Temperature 27 °F 17 °F 41 °F (2014)
Min Temperature 11 °F 1 °F -16 °F (2004)
Degree Days  
Heating Degree Days 46    
Month to date heating degree days 611  
Since 1 July heating degree days 4022  
Cooling Degree Days 0    
Month to date cooling degree days 0  
Year to date cooling degree days 0  
Moisture  
Dew Point 12 °F    
Average Humidity 73    
Maximum Humidity 88    
Minimum Humidity 51    
Precipitation  
Precipitation 0.00 in 0.06 in 0.57 in (2014)
Month to date precipitation 0.05 1.14  
Year to date precipitation 0.05 1.14  
Snow  
Snow 0.00 in - - ()
Month to date snowfall 0.0  
Snow Depth 0.00 in    
Sea Level Pressure  
Sea Level Pressure 30.38 in    
Wind  
Wind Speed 6 mph (NW)    
Max Wind Speed 21 mph    
Max Gust Speed 24 mph    
Visibility 10 miles    
Events      
T = Trace of Precipitation, MM = Missing Value Source: NWS Daily Summary

Daily Weather History Graph

Daily Weather History Graph

Search for Another Location

Airport or City:

Trip Planner

Search our weather history database for the weather conditions in past years. The results will help you decide how hot, cold, wet, or windy it might be!

Date:

Astronomy

Jan. 11, 2013 Rise Set
Actual Time 7:17 AM EST 4:05 PM EST
Civil Twilight 6:42 AM EST 4:40 PM EST
Nautical Twilight 6:04 AM EST 5:18 PM EST
Astronomical Twilight 5:27 AM EST 5:55 PM EST
Moon 6:45 AM EST (1/11) 4:22 PM EST (1/11)
Length of Visible Light 9h 57m
Length of Day
8h 47m
Waning Crescent, 0% of the Moon is Illuminated
Jan 11
Waning Crescent
Jan 11
New
Jan 18
First Quarter
Jan 26
Full
Feb 3
Last Quarter

Hourly Weather History & Observations

Time (EST) Temp. Windchill Dew Point Humidity Pressure Visibility Wind Dir Wind Speed Gust Speed Precip Events Conditions
12:53 AM 17.1 °F 10.0 °F 14.0 °F 88% 30.43 in 10.0 mi NNW 4.6 mph - N/A   Clear
1:53 AM 16.0 °F 8.8 °F 12.9 °F 88% 30.46 in 10.0 mi NW 4.6 mph - N/A   Clear
2:53 AM 16.0 °F 6.3 °F 12.0 °F 84% 30.48 in 10.0 mi NW 6.9 mph - N/A   Clear
3:53 AM 14.0 °F 3.9 °F 10.9 °F 88% 30.47 in 10.0 mi WNW 6.9 mph - N/A   Clear
4:53 AM 14.0 °F 2.9 °F 10.9 °F 88% 30.45 in 10.0 mi NNW 8.1 mph - N/A   Clear
5:53 AM 14.0 °F 3.9 °F 10.9 °F 88% 30.45 in 10.0 mi NW 6.9 mph - N/A   Clear
6:53 AM 12.0 °F 2.7 °F 9.0 °F 88% 30.48 in 10.0 mi NW 5.8 mph - N/A   Partly Cloudy
7:53 AM 12.9 °F 3.8 °F 10.0 °F 88% 30.48 in 10.0 mi NW 5.8 mph - N/A   Clear
8:53 AM 16.0 °F 5.3 °F 10.9 °F 81% 30.48 in 10.0 mi NNW 8.1 mph - N/A   Clear
9:53 AM 18.0 °F 6.9 °F 12.0 °F 78% 30.49 in 10.0 mi NNW 9.2 mph - N/A   Clear
10:53 AM 19.9 °F - 12.0 °F 71% 30.46 in 10.0 mi Calm Calm - N/A   Clear
11:53 AM 21.9 °F 15.7 °F 12.9 °F 68% 30.41 in 10.0 mi WNW 4.6 mph - N/A   Clear
12:53 PM 24.1 °F - 12.0 °F 60% 30.38 in 10.0 mi Calm Calm - N/A   Clear
1:53 PM 27.0 °F 23.0 °F 10.9 °F 51% 30.36 in 10.0 mi North 3.5 mph - N/A   Clear
2:53 PM 23.0 °F 17.0 °F 12.2 °F 63% 30.30 in 10.0 mi SSE 4.6 mph - N/A   Clear
3:53 PM 23.0 °F 15.8 °F 12.0 °F 63% 30.33 in 10.0 mi SSE 5.8 mph - N/A   Clear
4:53 PM 23.0 °F 18.4 °F 12.0 °F 63% 30.32 in 10.0 mi South 3.5 mph - N/A   Clear
5:53 PM 23.0 °F 17.0 °F 12.0 °F 63% 30.29 in 10.0 mi SE 4.6 mph - N/A   Clear
6:53 PM 21.9 °F 13.4 °F 12.9 °F 68% 30.30 in 10.0 mi SSE 6.9 mph - N/A   Overcast
7:53 PM 21.9 °F 13.4 °F 12.9 °F 68% 30.28 in 10.0 mi ESE 6.9 mph - N/A   Overcast
8:53 PM 21.9 °F 13.4 °F 14.0 °F 72% 30.27 in 10.0 mi SE 6.9 mph - N/A   Overcast
9:53 PM 23.0 °F 13.1 °F 12.9 °F 65% 30.25 in 10.0 mi ESE 9.2 mph - N/A   Overcast
10:53 PM 23.0 °F 11.7 °F 12.9 °F 65% 30.23 in 10.0 mi ESE 11.5 mph - N/A   Overcast
11:53 PM 24.1 °F 11.0 °F 12.9 °F 62% 30.21 in 10.0 mi SE 16.1 mph - N/A   Overcast